STARLINK-35482, 66346

Orbit data source: Space-Track

STARLINK-35482, 66346 is a payload satellite owned by SpaceX/Seattle (US) in LEO that was launched on Thu, 06 Nov 2025 UTC via an FALCON 9 launch vehicle from the Air Force Eastern Test Range (AFETR). Payload-class satellites include a variety of spacecraft equipped with specific instruments for various scientific and technological missions. These include communications satellites like Starlink; space stations such as the ISS; scientific satellites like the Hubble; Earth observation satellites from companies like Planet Labs, Umbra, and HawkEye 360; GPS; miniature CubeSats for education and research; and military/defense satellites.

Loading next visibility...
Identifier
66346, 2025-253AD
Orbit
LEO
Country
Flag of USUS
Related business
Manufacturer
SpaceX/Seattle
Mission
Operational Commercial Communications
Bus & Motor
STARLINK V2MO, Unknown motor
Mass
575 kg wet, ~530 kg dry
Launch date (UTC)
2025-11-06 (7 months ago)
Launch vehicle
FALCON 9
Launch site
Air Force Eastern Test Range (AFETR)
Object type
Payload
Rocket body
Debris
Shape & HBR
Box + 2 Pan, 17.7 m
Radar Cross Section
36.964 m², Large (>1 m²)

Expand to show TLE details & history
Last TLE update: 16 hours ago

TLE from 16 hours ago
0 STARLINK-35482
1 66346U 25253AD  26170.54232073  .00012937  00000-0  47868-3 0  9992
2 66346  43.0038 357.1130 0003612 282.8364  77.2084 15.27587232 35828
Epoch: 2026-06-19T13:00Z
TLE epoch observation values (Epoch: 2026-06-19T13:00:56.511Z)
Latitude
-0°
Longitude
-105.89227°
Altitude
482.256 km
Speed
7.626 km/s
True Right ascension
23h 48m 27s
True Declination
0° 00' 00"
Sunlit
Object was in daylight at epoch
Visualization orbit readout
Latitude
Unknown
Longitude
Unknown
Altitude
Unknown
Speed
Unknown
Apparent Right ascension
Unknown
Apparent Declination
Unknown
Sunlit
N/A
Visualization observer readout
Local Sidereal Time
16:07:00
Azimuth
Unknown
Elevation
Unknown
Doppler factor
Unknown
Orbital elements
Apogee altitude
487.451 km
Perigee altitude
482.493 km
Semi-major axis
6,863.109 km
Eccentricity
0.00036
Inclination
43.0038°
RAAN
357.113°
Arg. of periapsis
282.8364°
True anomaly
77.24877°
Mean anomaly
77.2084°
Eccentric anomaly
77.22858°
Mean motion
3.81735 °/min
Orbital period
94.31 mins
BSTAR
0.00047868
Loading maneuver chart data...
Computing Atmospheric mass density...
Loading historical data...
Loading historical data...
Loading historical data...
Loading historical data...
Loading historical data...
Loading historical data...
Loading historical data...

Documentation

Showing up to 5 results
|